loading
|

OBJECT G, 61443

Orbit data source: Space-Track

OBJECT G, 61443 is a satellite owned by CASC (CN) in LEO that was launched on Tue, 24 Sep 2024 UTC launched from the Jiuquan Satellite Launch Center, China (JSC). Unknown objects in Earth's orbit typically refer to objects detected orbiting the Earth but have not yet been identified or cataloged. These objects could be anything from previously untracked satellites, spent rocket stages, debris from satellite collisions, or even natural meteoroids temporarily captured by Earth's gravity.

Loading next visibility...
Next conjunction unknown
Loading greatness...
OBJECT G details
Identifier
61443, 2024-174G
Orbit
LEO
Last TLE update17 hours ago
Origin
Flag of CNCASC (CN / PRC)
ManufacturerCAS
MissionSpacecraft
Bus & MotorUnknown bus, Unknown motor
MassUnknown
Launch date (UTC)
2024-09-24 (3 weeks ago)
Launch vehicleUnknown
Launch site
Jiuquan Satellite Launch Center, China (JSC)
Object typeUnknown
Shape & HBRUnknown
Radar Cross SectionRCS unknown

Expand to show TLE details & history

TLE from 17 hours ago
0 OBJECT G
1 61443U 24174G   24287.86857674  .00447096  62896-4  20824-2 0  9993
2 61443  97.4260 294.0817 0134898 319.7922  39.3419 15.70857482  2711
Epoch: 2024-10-13T20:50Z
Definitive object data (Epoch: 2024-10-13T20:50:45.03Z)
Latitude-0.00009°
Longitude-41.5098°
Altitude289.829 km
Speed7.774 km/s
True Right ascension19h 36m 19s
True Declination0° 00' 00"
Sunlit
Object was in daylight at TLE epoch
Predictive object data (real-time)
Latitude70.42328°
Longitude-62.12579°
Altitude403.305 km
Speed7.654 km/s
Apparent Right ascension19h 48m 36s
Apparent Declination18° 24' 31"
Sunlit
Object is in daylight
Predictive observer data (real-time)
Local Sidereal Time08:31:40
Azimuth11.914° NNE
Elevation-30.816°
Doppler factor1
Orbital elements
Apogee444.15 km
Perigee262.537 km
Semi-major axis6,731.481 km
Eccentricity0.0134898
Inclination97.426°
RAAN294.0817°
Arg. of periapsis319.7922°
True anomaly40.33476°
Mean anomaly39.3419°
Eccentric anomaly39.83703°
Mean motion3.92986 °/min
BSTAR0.0020824
Period91.61 mins
No data available
No data available

OBJECT G Visibility forecast

Observer location: 39.9160978°, -105.1181434

Span
Click to sort rows by Start time (UTC) header in descending order
Start Az.
Max El. time (UTC)
Max El. Az.
Max El.
End time (UTC)
End Az.
4 mins2024-10-14 14:12:43.620Z333.603° NNW2024-10-14 14:14:43.620Z291.262° WNW19.571°2024-10-14 14:16:43.620Z247.448° WSW
5 mins2024-10-15 13:08:43.620Z36.571° NE2024-10-15 13:10:43.620Z105.893° ESE34.278°2024-10-15 13:13:43.620Z172.413° S